GFSMW_700_temp_273.txt.gz
Temp
12 11 11 11 11 11 12 12 12 13 12 12 12 12 12 11 11 11 11 11 10 10 9 8 6 8 8 8 8 8 8 8 8 8 8 8 8 8 8 8 7 7 8
10 11 11 11 11 11 11 12 13 13 13 13 13 12 12 12 12 11 11 11 10 9 7 7 7 8 8 7 7 7 8 8 8 7 8 9 8 8 8 8 7 7 7
8 9 10 10 10 11 11 12 12 13 14 13 13 13 12 12 12 12 12 12 11 9 8 6 6 7 7 7 5 6 7 9 9 7 8 8 9 9 9 9 8 8 8
8 8 9 10 10 10 11 11 12 13 13 13 13 13 12 12 12 12 12 12 12 10 8 6 7 7 6 6 6 7 8 8 8 8 9 8 8 8 9 8 8 8 8
6 7 8 8 9 9 10 11 12 12 12 13 13 13 12 12 12 12 12 12 12 11 9 8 8 7 7 7 7 8 8 8 8 8 8 8 8 8 7 7 8 7 7
6 7 7 8 8 9 9 9 10 11 12 12 12 12 12 12 12 12 11 11 11 11 10 8 8 7 7 8 7 9 8 8 8 8 8 7 7 7 7 6 5 5 6
4 6 6 7 8 8 9 9 10 11 11 12 12 12 12 12 11 11 11 11 11 10 9 8 8 7 8 8 8 9 8 8 8 7 7 7 7 7 6 6 5 5 4
4 5 5 6 7 8 7 8 10 11 10 11 11 11 11 11 11 10 11 11 9 8 7 7 7 8 8 8 8 8 8 8 7 7 7 7 7 7 7 6 5 5 4
4 4 5 5 6 6 6 7 9 9 8 8 9 10 10 10 10 10 9 8 7 7 7 5 5 6 7 7 8 8 7 7 7 6 6 6 6 7 6 5 5 4 4
3 3 3 3 4 5 6 6 6 7 6 7 8 8 8 8 8 7 7 7 7 6 5 3 3 5 6 7 7 7 6 6 6 6 6 6 6 6 5 5 4 4 3
1 2 3 3 2 3 4 5 6 5 5 5 5 6 7 6 6 6 7 6 6 5 5 5 3 5 6 6 6 5 5 5 6 5 6 6 6 5 4 4 3 3 3
0 1 2 2 3 3 3 3 3 4 4 4 5 5 4 4 6 5 5 5 4 4 4 4 4 5 5 5 5 5 5 5 5 5 5 5 5 4 3 3 3 3 3
1 1 1 2 2 3 2 3 2 2 2 4 3 4 4 4 5 4 3 3 3 2 3 3 3 3 4 4 4 4 4 5 5 5 4 4 3 3 3 2 2 2 2
-2 -0 1 1 1 2 3 2 2 1 1 2 2 2 2 2 2 2 1 2 2 1 2 2 3 3 3 4 4 4 4 4 4 4 4 3 3 2 2 2 1 2 1
-4 -2 -1 0 1 1 2 3 2 1 1 0 1 1 2 2 1 1 0 -0 1 2 1 2 2 3 3 2 2 2 3 3 3 2 3 3 2 2 2 2 1 1 1
-4 -3 -3 -1 -0 0 1 1 2 2 1 1 0 1 1 2 0 1 -0 -1 0 0 1 1 1 2 0 1 1 1 1 1 2 2 2 1 1 1 0 0 0 0 0
-5 -4 -4 -3 -2 -1 0 1 1 1 1 1 -0 -0 -0 0 -0 -0 -0 -0 -0 -0 -0 -1 -1 -0 -0 -1 -0 1 1 1 1 1 1 0 0 0 -0 -1 -1 -2 -2
-5 -4 -4 -3 -3 -2 -1 0 1 1 -1 -0 -0 1 -0 -0 -0 -0 -0 -0 -0 -0 -0 -0 -2 -1 -2 -1 -1 -1 -1 -1 -1 -1 -1 -1 -1 -1 -1 -1 -2 -2 -3
-6 -5 -5 -4 -3 -3 -3 -2 -2 -2 -1 -0 -0 0 -0 -1 -1 -1 -1 -1 -1 -1 -1 -2 -2 -2 -1 -0 -0 -1 -2 -1 -2 -2 -2 -2 -2 -2 -2 -2 -3 -3 -3
-6 -6 -5 -4 -4 -4 -3 -4 -2 -3 -2 -2 -1 -1 -1 -1 -1 -2 -1 -1 -2 -2 -2 -2 -2 -1 -1 -1 -2 -2 -2 -2 -2 -3 -3 -3 -3 -3 -3 -3 -3 -3 -4
-6 -6 -5 -5 -4 -4 -4 -3 -4 -4 -3 -3 -2 -2 -2 -3 -3 -2 -3 -4 -3 -3 -2 -3 -4 -4 -3 -3 -3 -3 -3 -3 -3 -3 -3 -4 -4 -4 -4 -4 -4 -4 -4
-6 -6 -6 -5 -5 -4 -4 -4 -4 -4 -5 -4 -4 -4 -4 -4 -4 -4 -3 -3 -6 -5 -5 -4 -4 -4 -4 -4 -3 -4 -4 -4 -4 -4 -5 -5 -5 -6 -6 -6 -7 -7 -7
-7 -6 -6 -5 -5 -4 -4 -4 -6 -5 -6 -5 -5 -4 -4 -4 -4 -4 -7 -7 -6 -5 -5 -5 -5 -5 -5 -5 -5 -5 -5 -6 -6 -6 -7 -7 -7 -8 -8 -9 -10 -10 -10
-7 -6 -6 -6 -5 -6 -7 -7 -7 -6 -6 -5 -5 -5 -5 -4 -7 -7 -6 -5 -5 -6 -6 -6 -5 -5 -5 -5 -6 -6 -6 -7 -8 -8 -9 -9 -10 -11 -11 -12 -12 -13 -13
-8 -7 -6 -6 -6 -7 -7 -8 -8 -7 -7 -6 -6 -5 -6 -9 -6 -6 -6 -6 -6 -6 -5 -5 -5 -6 -6 -6 -7 -8 -9 -10 -10 -11 -12 -12 -12 -13 -13 -13 -14 -15 -15
-8 -7 -7 -6 -6 -7 -7 -8 -8 -7 -7 -6 -7 -9 -9 -7 -7 -6 -6 -6 -6 -6 -6 -7 -8 -9 -10 -11 -11 -12 -12 -13 -13 -14 -14 -14 -15 -15 -15 -16 -16 -17 -17

GFSMW_700_temp_279.txt.gz
Temp
6 6 5 9 9 9 10 10 10 10 10 10 11 11 11 11 12 12 11 11 11 11 11 11 10 10 10 9 9 8 7 6 6 6 7 7 7 8 8 8 8 8 8
5 5 4 7 8 8 9 9 9 9 9 10 10 10 11 11 11 11 12 12 11 11 11 11 11 10 9 9 7 7 8 7 6 6 6 6 7 8 8 8 8 7 7
4 4 6 7 7 7 7 7 8 8 9 9 9 9 10 10 11 11 12 12 12 12 11 11 11 11 9 9 8 8 7 8 6 5 6 5 6 7 8 6 6 6 7
5 5 5 6 6 7 7 7 7 7 8 8 9 9 10 10 10 11 11 11 12 12 12 11 11 11 10 9 8 8 8 8 7 7 6 6 6 6 7 4 5 5 7
4 4 5 5 5 5 6 6 6 6 7 7 7 8 9 10 10 10 11 11 10 11 12 12 11 10 10 9 8 7 7 7 6 6 6 6 6 5 6 5 5 6 7
3 3 4 4 5 5 6 6 6 6 6 6 7 8 8 9 10 10 10 10 10 10 12 11 11 10 10 9 9 7 6 6 6 5 5 5 5 5 5 5 6 6 7
1 3 4 4 4 5 5 5 5 5 6 6 6 6 7 8 9 9 9 9 8 7 8 10 11 10 10 10 9 9 7 6 5 5 4 5 6 5 5 5 5 6 7
0 1 2 3 3 3 4 5 4 4 5 5 6 6 6 6 7 7 7 7 6 7 7 8 8 8 8 8 8 8 7 6 5 4 4 4 4 4 5 5 6 6 6
-0 -1 -1 -1 2 2 3 4 4 4 4 4 5 5 5 5 5 5 5 5 6 6 7 6 6 6 7 6 7 6 5 5 5 2 1 2 3 4 5 5 5 6 5
-0 -1 -2 -2 -2 1 2 2 2 3 3 4 4 4 4 4 4 4 5 5 5 6 6 6 6 6 5 5 6 5 4 3 4 2 1 1 3 4 5 5 5 5 5
-1 -1 -3 -3 -3 -2 1 2 2 2 3 3 3 3 3 2 3 3 3 3 4 4 6 7 5 5 5 4 4 4 4 3 3 1 1 1 3 4 4 4 4 4 4
-1 -2 -3 -4 -4 -5 -2 -1 0 1 2 3 1 1 2 2 2 -0 0 3 3 2 3 4 3 4 4 4 4 3 3 1 1 1 2 2 3 4 3 4 4 3 3
-2 -3 -4 -4 -5 -5 -4 -2 -1 -0 1 1 1 1 1 1 2 1 1 -0 1 0 1 2 3 3 2 2 1 1 1 1 1 2 2 2 2 2 2 2 2 2 2
-3 -4 -5 -5 -6 -6 -4 -3 -3 -2 -1 -0 0 1 1 0 0 -0 0 -0 1 2 1 1 2 2 2 -2 -1 -2 -1 -1 -2 -0 1 1 0 1 0 -0 1 1 1
-5 -5 -5 -5 -6 -7 -4 -4 -3 -3 -2 -1 -1 -0 -0 -0 -0 -0 -0 0 -1 -0 -1 -1 -1 -1 -1 -1 -1 -1 -2 -2 -1 -0 0 0 0 1 1 -1 -0 1 1
-6 -6 -6 -6 -6 -7 -5 -5 -4 -3 -3 -3 -2 -1 -1 -0 -1 -1 -1 -1 -2 -2 -2 -2 -2 -2 -2 -1 -1 -1 -1 -2 -1 -1 -0 1 1 1 0 -0 -0 0 0
-6 -6 -6 -6 -7 -8 -6 -5 -5 -4 -4 -4 -3 -3 -2 -2 -1 -1 -1 -1 -2 -2 -3 -2 -2 -2 -2 -1 -2 -2 -2 -1 -1 -0 -0 -2 -2 -1 -1 -1 -1 -1 -1
-7 -7 -7 -7 -7 -7 -6 -5 -5 -4 -4 -4 -4 -3 -3 -3 -2 -3 -3 -3 -3 -3 -3 -3 -2 -2 -2 -2 -2 -3 -3 -3 -3 -3 -3 -3 -2 -2 -1 -1 -2 -2 -2
-7 -7 -7 -7 -7 -6 -6 -6 -5 -4 -4 -5 -5 -5 -4 -4 -4 -4 -4 -4 -4 -4 -4 -4 -5 -5 -5 -5 -5 -5 -5 -4 -3 -3 -3 -3 -3 -2 -2 -2 -2 -1 -2
-7 -7 -7 -8 -6 -6 -6 -6 -6 -5 -6 -6 -6 -6 -6 -5 -5 -5 -5 -5 -5 -5 -5 -5 -5 -8 -8 -7 -5 -5 -4 -4 -4 -4 -3 -3 -3 -3 -2 -2 -3 -2 -3
-7 -8 -8 -7 -8 -7 -7 -6 -6 -7 -7 -7 -6 -7 -7 -6 -6 -6 -6 -6 -6 -6 -6 -8 -8 -7 -6 -5 -5 -4 -4 -4 -4 -4 -4 -4 -4 -4 -4 -4 -4 -4 -4
-8 -8 -8 -8 -8 -7 -7 -7 -7 -8 -8 -8 -8 -8 -8 -8 -7 -7 -7 -6 -8 -8 -8 -7 -7 -7 -7 -6 -6 -5 -5 -6 -6 -6 -6 -6 -7 -7 -7 -8 -8 -8 -8
-8 -8 -8 -8 -8 -8 -7 -7 -7 -8 -9 -9 -9 -9 -8 -9 -8 -8 -9 -9 -8 -8 -8 -7 -7 -8 -8 -8 -8 -8 -8 -8 -8 -8 -8 -8 -9 -9 -9 -10 -10 -11 -11
-8 -8 -9 -9 -8 -8 -7 -7 -8 -9 -10 -10 -10 -9 -9 -8 -10 -11 -10 -9 -9 -8 -8 -8 -8 -8 -8 -9 -8 -8 -8 -9 -9 -10 -11 -11 -11 -12 -12 -13 -14 -14 -14
-9 -9 -9 -9 -9 -8 -8 -9 -9 -10 -10 -10 -10 -9 -10 -11 -12 -10 -9 -9 -9 -9 -9 -9 -9 -9 -9 -10 -9 -10 -11 -11 -12 -12 -12 -13 -13 -14 -15 -15 -15 -16 -16
-9 -10 -9 -9 -9 -9 -10 -10 -10 -10 -11 -11 -10 -11 -12 -11 -10 -10 -10 -10 -10 -10 -10 -11 -11 -11 -12 -12 -13 -13 -13 -14 -14 -14 -14 -15 -16 -16 -16 -16 -16 -16 -16

GFSMW_700_temp_285.txt.gz
Temp
9 9 9 9 9 8 8 7 7 7 7 7 7 7 7 6 7 7 7 8 8 8 8 9 10 10 10 10 9 9 8 9 10 9 8 9 9 9 9 8 8 7 6
9 8 8 9 8 8 8 7 6 6 6 6 6 6 7 7 7 7 7 7 8 7 8 8 9 10 10 10 10 10 9 9 8 8 8 8 8 9 9 8 8 7 7
7 7 8 7 7 7 7 6 4 5 4 5 5 5 5 5 6 6 6 6 6 7 7 8 8 9 9 10 10 10 9 9 9 8 7 7 8 8 8 8 7 7 7
5 4 4 3 4 5 5 5 5 4 4 4 4 4 4 5 5 6 6 7 6 6 6 7 7 8 8 9 10 10 10 8 9 8 7 7 7 7 7 8 7 7 6
2 1 1 1 0 0 2 3 3 3 4 4 5 4 4 4 4 4 5 6 5 5 6 6 7 6 6 8 9 9 8 9 6 7 8 7 7 6 6 6 7 6 6
1 0 -1 -1 -1 -1 0 2 3 4 4 4 4 3 3 3 3 4 4 5 5 5 5 5 6 6 7 6 7 7 6 6 5 6 6 8 7 6 5 5 6 5 4
1 0 -0 -1 -1 -1 -1 -1 -1 1 2 2 2 2 2 3 3 3 3 4 4 4 5 5 5 5 6 6 6 6 5 6 5 5 5 6 6 6 6 5 5 4 4
1 0 -0 -0 -1 -1 -1 -1 -2 -2 -2 -2 -0 1 1 2 2 2 1 2 3 3 4 4 5 5 4 5 5 6 5 5 6 5 5 6 6 5 4 5 4 3 4
1 -1 -1 -2 -2 -2 -2 -3 -4 -3 -3 -3 -2 -2 -1 -0 0 -0 1 -0 1 2 4 3 3 2 4 4 5 4 4 6 5 5 4 6 5 5 4 3 3 3 4
-0 -1 -2 -3 -3 -3 -3 -3 -4 -4 -4 -3 -4 -3 -3 -3 -2 -0 -1 -0 0 1 2 2 2 2 2 3 3 1 2 3 2 5 6 5 4 5 4 4 4 3 4
-2 -2 -2 -3 -3 -4 -3 -3 -4 -4 -3 -4 -4 -3 -3 -4 -4 -2 -1 -2 -1 -0 1 1 1 1 2 2 1 1 2 2 1 2 3 2 4 2 2 4 4 4 3
-2 -3 -3 -3 -4 -4 -4 -4 -4 -4 -5 -4 -4 -4 -4 -5 -4 -3 -2 -2 -2 -1 -0 0 1 -0 -0 2 0 -0 -0 1 1 1 1 0 0 1 0 2 2 3 4
-3 -3 -3 -4 -4 -5 -4 -5 -5 -5 -5 -5 -4 -4 -6 -5 -5 -4 -3 -2 -2 -1 -1 -0 -1 -2 -2 -1 -0 -1 -0 -0 0 0 -0 0 0 0 -0 0 0 1 -0
-4 -4 -4 -4 -5 -5 -5 -5 -6 -5 -6 -5 -4 -4 -5 -6 -5 -5 -4 -4 -3 -3 -1 -2 -3 -3 -2 -2 -2 -1 -2 -2 -1 -1 -1 -1 -1 -1 -1 -2 -1 -2 -2
-5 -5 -7 -6 -5 -6 -6 -6 -6 -5 -6 -5 -5 -5 -6 -6 -5 -6 -5 -5 -4 -4 -3 -4 -4 -4 -4 -3 -3 -3 -3 -3 -5 -5 -6 -5 -4 -3 -4 -3 -2 -2 -1
-6 -7 -7 -7 -7 -6 -6 -7 -6 -6 -6 -6 -5 -7 -8 -7 -7 -6 -6 -6 -5 -5 -4 -5 -4 -4 -4 -4 -4 -4 -4 -4 -4 -4 -5 -4 -3 -3 -2 -2 -2 -1 -0
-8 -7 -8 -8 -7 -7 -7 -7 -6 -6 -7 -6 -6 -9 -8 -8 -8 -8 -7 -7 -6 -6 -6 -5 -5 -5 -5 -5 -5 -5 -4 -4 -4 -3 -3 -3 -3 -3 -3 -3 -3 -3 -3
-8 -8 -7 -8 -8 -8 -7 -7 -7 -7 -7 -6 -7 -8 -8 -9 -8 -8 -8 -7 -7 -7 -6 -6 -6 -6 -6 -6 -6 -6 -5 -5 -5 -5 -5 -5 -5 -5 -6 -5 -3 -3 -2
-10 -9 -8 -8 -8 -8 -8 -8 -7 -7 -7 -7 -8 -9 -9 -9 -9 -9 -8 -8 -8 -8 -8 -8 -8 -9 -8 -8 -7 -7 -6 -5 -5 -4 -4 -4 -3 -3 -3 -3 -3 -3 -3
-11 -9 -9 -8 -8 -8 -8 -8 -7 -7 -7 -8 -9 -10 -10 -10 -10 -10 -9 -9 -10 -10 -10 -10 -9 -9 -9 -8 -7 -7 -7 -7 -6 -5 -5 -5 -5 -5 -5 -5 -5 -4 -4
-9 -9 -8 -8 -8 -8 -8 -8 -7 -7 -8 -9 -10 -10 -11 -11 -10 -10 -10 -11 -11 -11 -10 -9 -9 -9 -8 -8 -8 -8 -8 -7 -7 -7 -7 -7 -6 -6 -6 -6 -5 -6 -6
-9 -9 -8 -8 -9 -8 -8 -8 -8 -8 -9 -10 -10 -11 -11 -11 -11 -11 -12 -12 -10 -10 -10 -10 -10 -9 -9 -10 -10 -10 -10 -9 -9 -9 -9 -9 -9 -9 -9 -9 -9 -9 -9
-9 -9 -9 -9 -9 -9 -9 -8 -8 -9 -10 -10 -11 -11 -12 -12 -12 -12 -12 -12 -11 -11 -11 -11 -11 -11 -11 -11 -12 -12 -11 -11 -11 -11 -11 -11 -11 -11 -11 -11 -11 -12 -12
-9 -9 -9 -9 -9 -9 -9 -9 -10 -10 -11 -11 -12 -12 -12 -13 -12 -12 -12 -12 -12 -12 -12 -12 -11 -12 -12 -13 -13 -13 -13 -13 -13 -13 -13 -13 -13 -13 -13 -14 -14 -15 -15
-9 -9 -9 -9 -9 -9 -10 -10 -10 -11 -12 -12 -12 -13 -13 -12 -13 -13 -12 -12 -12 -12 -12 -12 -13 -13 -13 -13 -13 -13 -13 -13 -14 -14 -14 -14 -14 -14 -15 -16 -16 -16 -16
-9 -9 -10 -10 -10 -10 -10 -11 -12 -13 -12 -13 -13 -13 -13 -13 -13 -12 -12 -13 -13 -13 -13 -14 -14 -14 -14 -15 -15 -15 -15 -16 -16 -16 -16 -15 -15 -16 -16 -17 -17 -16 -16

GFSMW_700_temp_288.txt.gz
Temp
8 8 8 8 8 8 8 8 8 8 8 8 7 6 6 6 6 6 5 5 5 5 5 5 6 8 8 8 8 8 8 8 8 8 8 8 9 8 8 8 8 9 8
6 6 6 7 7 7 7 7 6 6 6 6 7 6 4 4 5 5 5 4 4 4 5 5 7 7 7 7 7 8 9 8 8 8 7 8 9 9 9 9 9 9 9
4 4 5 5 5 6 6 6 5 5 5 5 6 6 5 5 5 5 6 5 5 4 5 4 5 6 6 7 7 7 7 7 7 7 6 6 8 9 9 9 9 9 8
3 2 2 2 2 3 3 2 3 3 4 4 4 4 4 5 5 5 5 5 5 5 5 5 4 5 5 6 6 6 6 6 6 6 5 6 6 7 7 8 8 7 8
1 1 1 0 -0 0 1 0 0 0 1 1 2 3 3 3 3 3 3 3 3 4 4 4 4 4 5 5 5 5 5 4 4 5 5 4 6 6 6 6 7 7 7
1 1 1 0 0 0 0 0 -0 -1 -1 -1 -1 -1 -1 -1 -0 1 2 2 2 2 3 3 4 4 4 4 5 5 4 4 6 4 4 5 5 6 5 5 4 4 5
2 1 1 1 0 0 -0 -1 -2 -3 -3 -3 -3 -3 -2 -1 -1 -1 -1 -0 1 -1 0 2 3 3 3 4 5 5 5 5 4 3 6 5 5 5 5 5 5 4 3
-1 -1 -1 -2 -2 -2 -2 -2 -3 -3 -4 -4 -4 -3 -3 -2 -3 -3 -2 -2 -3 -2 -1 1 2 3 4 4 4 4 5 5 4 4 5 4 5 4 5 4 5 5 4
-2 -2 -2 -3 -3 -3 -3 -3 -4 -4 -4 -4 -4 -3 -4 -3 -3 -3 -3 -3 -2 -1 -1 1 1 1 3 4 4 3 2 3 4 3 3 3 4 5 4 4 5 4 4
-2 -2 -3 -3 -3 -3 -4 -4 -4 -4 -4 -4 -4 -4 -4 -4 -4 -3 -4 -3 -3 -2 -2 -1 -0 1 2 2 2 1 1 2 4 5 3 1 1 3 3 4 4 5 4
-2 -3 -4 -5 -5 -5 -4 -4 -5 -5 -5 -5 -5 -5 -4 -4 -4 -6 -6 -5 -5 -3 -3 -2 -1 0 1 0 1 -0 -1 2 0 3 1 2 2 1 1 2 4 5 4
-5 -5 -5 -6 -6 -6 -6 -6 -5 -6 -5 -5 -5 -5 -5 -5 -5 -6 -6 -5 -4 -5 -4 -3 -1 -1 -1 -2 -2 -2 -1 -1 -0 -1 -0 -0 0 0 0 1 1 2 2
-5 -5 -6 -7 -7 -7 -7 -7 -6 -6 -6 -6 -6 -6 -6 -5 -6 -6 -7 -6 -6 -5 -5 -4 -3 -3 -3 -2 -3 -3 -3 -3 -2 -2 -1 -1 -0 -1 0 -0 0 -0 0
-5 -6 -6 -6 -7 -6 -7 -7 -7 -6 -6 -6 -6 -6 -6 -7 -7 -6 -7 -7 -7 -6 -6 -5 -5 -5 -5 -4 -4 -4 -4 -3 -3 -3 -3 -2 -1 -1 -0 -0 -1 -1 -2
-6 -8 -8 -8 -8 -7 -7 -8 -7 -7 -7 -7 -7 -7 -7 -8 -8 -7 -8 -8 -8 -7 -7 -6 -6 -5 -5 -5 -5 -5 -5 -5 -4 -4 -4 -3 -3 -3 -3 -3 -4 -5 -6
-9 -10 -8 -8 -8 -8 -7 -8 -7 -7 -7 -7 -7 -7 -8 -9 -8 -8 -8 -8 -8 -8 -7 -7 -7 -6 -6 -6 -6 -6 -6 -5 -5 -5 -5 -5 -5 -5 -5 -4 -4 -4 -3
-8 -9 -11 -10 -8 -8 -8 -8 -8 -8 -7 -7 -8 -8 -9 -9 -9 -9 -9 -9 -9 -9 -9 -8 -8 -7 -8 -7 -7 -6 -7 -6 -6 -6 -5 -5 -5 -5 -4 -4 -3 -3 -3
-9 -10 -11 -10 -9 -9 -8 -8 -8 -8 -7 -8 -9 -9 -9 -9 -9 -9 -10 -10 -10 -10 -11 -10 -10 -10 -10 -9 -8 -8 -8 -8 -8 -7 -7 -7 -7 -7 -7 -6 -5 -4 -5
-9 -9 -10 -9 -9 -9 -8 -9 -8 -8 -8 -9 -9 -9 -9 -10 -10 -10 -10 -10 -11 -12 -11 -11 -11 -10 -9 -9 -8 -8 -8 -7 -7 -6 -6 -6 -5 -5 -5 -5 -4 -4 -3
-8 -9 -9 -9 -9 -8 -9 -9 -8 -8 -9 -9 -10 -10 -10 -11 -11 -11 -12 -12 -13 -12 -11 -11 -10 -10 -10 -10 -9 -9 -8 -8 -8 -7 -7 -6 -6 -6 -6 -5 -5 -5 -5
-8 -9 -9 -9 -9 -8 -9 -9 -9 -10 -10 -10 -10 -11 -11 -12 -12 -12 -13 -13 -12 -12 -12 -11 -11 -11 -11 -11 -10 -10 -10 -9 -9 -9 -9 -9 -8 -8 -7 -7 -8 -7 -7
-9 -9 -8 -8 -9 -9 -9 -9 -10 -10 -10 -11 -11 -12 -12 -12 -12 -12 -13 -13 -13 -12 -12 -12 -12 -11 -11 -12 -11 -12 -11 -11 -11 -10 -10 -10 -10 -10 -10 -10 -10 -10 -10
-9 -9 -9 -9 -9 -10 -10 -11 -11 -11 -11 -12 -12 -12 -12 -12 -12 -13 -13 -13 -13 -13 -13 -13 -13 -13 -13 -13 -13 -12 -12 -12 -12 -12 -12 -12 -12 -12 -12 -12 -13 -13 -14
-10 -10 -10 -10 -10 -10 -10 -11 -11 -12 -13 -13 -12 -12 -12 -12 -13 -13 -13 -13 -13 -13 -13 -13 -13 -14 -14 -13 -13 -13 -13 -14 -14 -14 -14 -14 -14 -14 -14 -15 -15 -15 -15
-9 -10 -10 -10 -10 -11 -11 -12 -12 -13 -12 -12 -12 -12 -13 -13 -13 -13 -13 -13 -13 -13 -13 -13 -14 -14 -13 -13 -14 -14 -14 -14 -15 -15 -15 -15 -15 -15 -15 -16 -16 -16 -15
-10 -10 -10 -10 -11 -11 -12 -12 -13 -12 -12 -12 -12 -12 -12 -13 -13 -13 -13 -14 -14 -14 -14 -14 -15 -15 -15 -15 -15 -15 -16 -16 -16 -16 -15 -15 -15 -15 -16 -16 -16 -16 -15

GFSMW_700_temp_291.txt.gz
Temp
5 5 5 5 5 5 5 5 5 5 6 6 6 6 5 4 4 5 4 4 4 4 4 4 4 3 4 4 3 3 3 3 4 5 6 6 7 7 7 8 8 8 8
4 4 4 4 4 4 4 4 5 5 5 4 5 4 4 4 3 4 4 4 4 4 5 5 4 4 4 4 4 5 4 5 5 5 5 5 7 7 8 8 8 8 8
3 3 3 3 2 3 3 3 3 3 2 4 4 4 4 3 3 3 3 4 4 4 4 4 5 5 5 5 5 5 5 6 5 5 6 5 7 7 7 8 7 8 8
2 2 2 2 2 2 2 2 2 1 0 1 1 0 1 1 0 1 0 -0 0 1 1 2 4 4 4 5 5 5 5 5 5 6 5 6 6 6 6 6 7 7 7
2 2 3 2 2 2 1 1 -1 -2 -2 -1 -2 -2 -3 -3 -3 -2 -1 -1 -0 -0 0 -0 0 2 4 4 5 5 5 4 4 5 4 5 6 5 5 5 5 6 7
3 3 2 1 1 0 -1 -2 -2 -2 -2 -2 -3 -3 -3 -3 -3 -2 -2 -1 -1 -1 -2 -2 -1 -0 2 3 3 4 4 4 4 5 5 5 5 6 6 5 5 4 4
2 2 1 0 -1 -2 -2 -3 -3 -3 -3 -3 -4 -3 -4 -4 -3 -3 -3 -2 -2 -2 -2 -3 -2 -1 -0 1 2 3 3 3 4 4 4 4 4 4 4 4 5 3 4
-1 -1 -1 -1 -2 -3 -4 -4 -4 -4 -5 -5 -4 -4 -4 -4 -4 -3 -3 -3 -3 -4 -3 -5 -3 -2 -1 0 1 2 3 3 4 5 4 3 3 4 3 4 3 3 3
-2 -3 -4 -4 -5 -5 -6 -6 -6 -6 -5 -5 -5 -5 -5 -5 -5 -4 -4 -5 -6 -7 -6 -5 -4 -3 -2 -1 0 2 3 3 3 2 2 2 3 3 3 4 3 3 3
-3 -4 -5 -6 -6 -6 -6 -6 -6 -6 -7 -6 -6 -6 -6 -6 -5 -5 -5 -6 -7 -7 -6 -5 -5 -4 -3 -2 -2 1 2 3 2 1 2 2 3 3 2 2 2 1 2
-2 -3 -4 -5 -5 -6 -7 -7 -6 -6 -7 -7 -6 -6 -6 -6 -6 -6 -7 -7 -7 -6 -6 -6 -5 -6 -5 -4 -4 -4 -3 -3 -1 -1 -1 2 0 -0 1 1 1 2 2
-3 -5 -5 -8 -9 -8 -8 -8 -7 -7 -6 -7 -6 -6 -6 -7 -7 -8 -8 -8 -8 -8 -7 -7 -7 -7 -6 -6 -5 -5 -4 -3 -2 -2 -2 -1 -1 -1 -1 -0 0 1 1
-5 -5 -7 -9 -9 -9 -8 -8 -8 -8 -7 -7 -7 -7 -7 -8 -8 -9 -9 -9 -8 -8 -8 -8 -7 -7 -7 -6 -6 -6 -5 -4 -4 -3 -3 -2 -2 -2 -1 -1 -0 -1 -1
-5 -6 -7 -9 -9 -9 -8 -8 -8 -8 -7 -7 -7 -7 -7 -8 -9 -9 -9 -9 -9 -8 -8 -8 -8 -8 -7 -6 -6 -6 -6 -6 -5 -4 -4 -4 -3 -3 -3 -2 -2 -2 -1
-6 -7 -8 -9 -10 -9 -9 -8 -8 -8 -7 -7 -7 -7 -8 -9 -10 -10 -9 -9 -9 -9 -9 -9 -9 -8 -8 -7 -7 -7 -7 -6 -6 -5 -5 -5 -5 -5 -5 -5 -4 -4 -3
-7 -8 -9 -10 -11 -9 -9 -9 -9 -8 -8 -8 -8 -8 -9 -10 -10 -10 -10 -10 -10 -9 -9 -9 -9 -10 -11 -10 -9 -8 -8 -8 -7 -6 -6 -6 -6 -5 -5 -5 -5 -4 -4
-7 -8 -8 -8 -8 -9 -9 -9 -9 -8 -8 -8 -9 -10 -10 -10 -11 -11 -11 -11 -11 -11 -11 -10 -10 -11 -11 -11 -9 -9 -9 -8 -8 -8 -8 -7 -7 -6 -5 -5 -5 -4 -5
-7 -7 -7 -7 -8 -8 -8 -9 -9 -9 -9 -9 -10 -11 -11 -11 -12 -12 -12 -12 -12 -12 -11 -11 -11 -11 -10 -10 -9 -8 -8 -8 -8 -8 -7 -7 -7 -6 -6 -5 -5 -6 -5
-7 -7 -8 -8 -9 -9 -9 -9 -9 -9 -10 -10 -11 -11 -12 -12 -13 -13 -13 -12 -12 -12 -12 -12 -12 -11 -11 -11 -10 -9 -9 -9 -8 -7 -7 -7 -7 -7 -7 -7 -7 -6 -5
-7 -8 -8 -9 -9 -9 -9 -9 -9 -10 -10 -11 -11 -12 -13 -14 -13 -13 -13 -13 -12 -12 -12 -12 -12 -12 -12 -12 -11 -11 -10 -10 -10 -9 -9 -9 -8 -8 -8 -8 -8 -8 -8
-8 -8 -8 -9 -10 -9 -9 -10 -10 -11 -11 -12 -12 -13 -13 -13 -12 -12 -13 -13 -13 -13 -13 -13 -13 -13 -13 -12 -12 -12 -11 -11 -11 -11 -10 -10 -10 -9 -9 -9 -9 -9 -9
-8 -8 -8 -9 -9 -10 -10 -11 -11 -11 -12 -13 -13 -12 -13 -13 -13 -13 -13 -14 -14 -14 -14 -14 -14 -13 -13 -13 -13 -13 -12 -12 -12 -11 -11 -11 -11 -11 -11 -11 -11 -12 -12
-8 -8 -9 -9 -10 -10 -11 -11 -12 -12 -12 -12 -13 -13 -13 -13 -13 -14 -14 -14 -14 -14 -14 -14 -14 -14 -14 -14 -14 -14 -14 -13 -13 -12 -12 -12 -12 -12 -13 -13 -14 -14 -14
-9 -9 -9 -10 -10 -11 -11 -12 -12 -11 -11 -12 -13 -13 -13 -13 -13 -14 -14 -14 -14 -14 -14 -14 -14 -14 -14 -14 -14 -14 -14 -14 -14 -14 -14 -14 -14 -14 -14 -15 -15 -15 -14
-9 -9 -9 -10 -11 -11 -12 -12 -12 -12 -12 -12 -12 -12 -12 -13 -13 -14 -14 -14 -14 -14 -14 -14 -14 -14 -14 -14 -15 -15 -15 -15 -15 -15 -15 -15 -15 -15 -15 -15 -15 -14 -14
-9 -10 -10 -10 -11 -11 -11 -12 -11 -11 -11 -12 -12 -12 -13 -13 -13 -14 -14 -14 -14 -15 -15 -15 -15 -15 -15 -15 -15 -15 -15 -15 -15 -15 -15 -14 -14 -14 -14 -14 -14 -14 -14